• In Netherlands
  • List of Countries
  • For 7 days
  • Water Temperature
  • Satellite Maps
  • Weather Map
  • Weather Widgets
  • user-avatar
    Login

    Hourly Weather Elbasan

    Today, 30 April, Sunday

    Time Temperature Precipitation Wind Pressure Humidity
    00:00 +13°C° 0 mm 2 mps 731 mmHg 68%
    01:00 +13°C° 0 mm 2 mps 730 mmHg 76%
    02:00 +13°C° 0 mm 2 mps 730 mmHg 79%
    03:00 +13°C° 0 mm 2 mps 731 mmHg 81%
    04:00 +13°C° 0 mm 2 mps 731 mmHg 84%
    05:00 +14°C° 0 mm 2 mps 731 mmHg 79%
    06:00 +16°C° 0 mm 2 mps 731 mmHg 74%
    07:00 +18°C° 0 mm 2 mps 731 mmHg 66%
    08:00 +20°C° 0.2 mm 2 mps 731 mmHg 61%
    09:00 +23°C° 0.2 mm 2 mps 731 mmHg 56%
    10:00 +25°C° 0.2 mm 2 mps 731 mmHg 51%
    11:00 +25°C° 0.7 mm 2 mps 731 mmHg 52%
    12:00 +25°C° 0.7 mm 3 mps 731 mmHg 53%
    13:00 +25°C° 0.7 mm 3 mps 731 mmHg 54%
    14:00 +24°C° 1.1 mm 3 mps 731 mmHg 60%
    15:00 +21°C° 1.1 mm 2 mps 731 mmHg 66%
    16:00 +20°C° 1.1 mm 2 mps 731 mmHg 72%
    17:00 +19°C° 0.6 mm 2 mps 731 mmHg 78%
    18:00 +17°C° 0.6 mm 2 mps 731 mmHg 84%
    19:00 +16°C° 0.6 mm 2 mps 731 mmHg 91%
    20:00 +16°C° 0.3 mm 2 mps 731 mmHg 92%
    21:00 +15°C° 0.3 mm 1 mps 732 mmHg 93%
    22:00 +14°C° 0.3 mm 1 mps 732 mmHg 94%
    23:00 +14°C° 0.1 mm 1 mps 732 mmHg 94%

    Tomorrow, 1 May, Monday

    Time Temperature Precipitation Wind Pressure Humidity
    00:00 +14°C° 0.1 mm 1 mps 732 mmHg 94%
    01:00 +13°C° 0.1 mm 1 mps 732 mmHg 95%
    02:00 +13°C° 0 mm 1 mps 732 mmHg 94%
    03:00 +12°C° 0 mm 1 mps 732 mmHg 94%
    04:00 +12°C° 0 mm 1 mps 732 mmHg 94%
    05:00 +14°C° 0 mm 1 mps 732 mmHg 89%
    06:00 +16°C° 0 mm 1 mps 733 mmHg 84%
    07:00 +18°C° 0 mm 1 mps 733 mmHg 78%
    08:00 +20°C° 0 mm 1 mps 733 mmHg 69%
    09:00 +22°C° 0 mm 1 mps 733 mmHg 60%
    10:00 +24°C° 0 mm 2 mps 734 mmHg 51%
    11:00 +24°C° 0.2 mm 2 mps 733 mmHg 51%
    12:00 +25°C° 0.2 mm 2 mps 733 mmHg 52%
    13:00 +25°C° 0.2 mm 3 mps 733 mmHg 52%
    14:00 +24°C° 0.4 mm 3 mps 733 mmHg 57%
    15:00 +24°C° 0.4 mm 2 mps 733 mmHg 61%
    16:00 +23°C° 0.4 mm 2 mps 733 mmHg 65%
    17:00 +20°C° 0.3 mm 2 mps 733 mmHg 75%
    18:00 +18°C° 0.3 mm 1 mps 733 mmHg 84%
    19:00 +15°C° 0.3 mm 1 mps 733 mmHg 94%
    20:00 +15°C° 0.1 mm 1 mps 734 mmHg 94%
    21:00 +13°C° 0.1 mm 0 mps 734 mmHg 94%
    22:00 +12°C° 0.1 mm 0 mps 734 mmHg 94%
    23:00 +12°C° 0 mm 0 mps 734 mmHg 94%

    Day after tomorrow, 2 May, Tuesday

    Time Temperature Precipitation Wind Pressure Humidity
    00:00 +12°C° 0 mm 0 mps 734 mmHg 94%
    01:00 +11°C° 0 mm 0 mps 734 mmHg 94%
    02:00 +11°C° 0 mm 0 mps 734 mmHg 94%
    03:00 +11°C° 0 mm 0 mps 734 mmHg 94%
    04:00 +10°C° 0 mm 0 mps 734 mmHg 94%
    05:00 +13°C° 0 mm 0 mps 735 mmHg 87%
    06:00 +15°C° 0 mm 0 mps 735 mmHg 80%
    07:00 +20°C° 0 mm 1 mps 735 mmHg 74%
    08:00 +22°C° 0 mm 1 mps 735 mmHg 65%
    09:00 +24°C° 0 mm 1 mps 736 mmHg 57%
    10:00 +26°C° 0 mm 1 mps 736 mmHg 49%
    11:00 +26°C° 0 mm 2 mps 736 mmHg 47%
    12:00 +26°C° 0 mm 2 mps 736 mmHg 45%
    13:00 +27°C° 0 mm 3 mps 736 mmHg 43%
    14:00 +26°C° 0.1 mm 3 mps 735 mmHg 46%
    15:00 +25°C° 0.1 mm 3 mps 735 mmHg 49%
    16:00 +24°C° 0.1 mm 3 mps 735 mmHg 53%
    17:00 +21°C° 0.1 mm 2 mps 735 mmHg 62%
    18:00 +18°C° 0.1 mm 2 mps 735 mmHg 72%
    19:00 +16°C° 0.1 mm 1 mps 735 mmHg 82%
    20:00 +15°C° 0 mm 1 mps 735 mmHg 83%
    21:00 +14°C° 0 mm 1 mps 736 mmHg 84%
    22:00 +13°C° 0 mm 0 mps 736 mmHg 86%
    23:00 +13°C° 0 mm 0 mps 736 mmHg 87%

    3 May, Wednesday

    Time Temperature Precipitation Wind Pressure Humidity
    00:00 +12°C° 0 mm 0 mps 736 mmHg 87%
    01:00 +12°C° 0 mm 0 mps 736 mmHg 88%
    02:00 +13°C° 0 mm 1 mps 735 mmHg 88%
    03:00 +13°C° 0 mm 1 mps 735 mmHg 89%
    04:00 +12°C° 0 mm 1 mps 735 mmHg 89%
    05:00 +15°C° 0 mm 1 mps 735 mmHg 81%
    06:00 +18°C° 0 mm 1 mps 736 mmHg 73%
    07:00 +21°C° 0 mm 1 mps 736 mmHg 65%
    08:00 +23°C° 0 mm 1 mps 736 mmHg 59%
    09:00 +24°C° 0 mm 1 mps 736 mmHg 53%
    10:00 +26°C° 0 mm 1 mps 736 mmHg 47%
    11:00 +26°C° 0.2 mm 2 mps 736 mmHg 46%
    12:00 +26°C° 0.2 mm 2 mps 736 mmHg 46%
    13:00 +26°C° 0.2 mm 3 mps 735 mmHg 46%
    14:00 +26°C° 0.3 mm 3 mps 735 mmHg 48%
    15:00 +25°C° 0.3 mm 3 mps 735 mmHg 51%
    16:00 +24°C° 0.3 mm 2 mps 735 mmHg 54%
    17:00 +21°C° 0.1 mm 2 mps 735 mmHg 64%
    18:00 +19°C° 0.1 mm 1 mps 735 mmHg 74%
    19:00 +15°C° 0.1 mm 1 mps 735 mmHg 84%
    20:00 +15°C° 0 mm 1 mps 735 mmHg 85%
    21:00 +13°C° 0 mm 0 mps 735 mmHg 87%
    22:00 +12°C° 0 mm 0 mps 735 mmHg 89%
    23:00 +12°C° 0 mm 0 mps 735 mmHg 89%

    4 May, Thursday

    Time Temperature Precipitation Wind Pressure Humidity
    00:00 +12°C° 0 mm 0 mps 734 mmHg 89%
    01:00 +11°C° 0 mm 0 mps 734 mmHg 89%
    02:00 +11°C° 0 mm 0 mps 734 mmHg 89%
    03:00 +11°C° 0 mm 0 mps 734 mmHg 89%
    04:00 +10°C° 0 mm 0 mps 734 mmHg 89%
    05:00 +13°C° 0 mm 0 mps 734 mmHg 80%
    06:00 +16°C° 0 mm 0 mps 734 mmHg 72%
    07:00 +20°C° 0 mm 1 mps 734 mmHg 64%
    08:00 +22°C° 0 mm 1 mps 734 mmHg 56%
    09:00 +23°C° 0 mm 1 mps 734 mmHg 48%
    10:00 +25°C° 0 mm 2 mps 734 mmHg 40%
    11:00 +25°C° 0 mm 2 mps 734 mmHg 40%
    12:00 +25°C° 0 mm 3 mps 734 mmHg 39%
    13:00 +26°C° 0 mm 3 mps 734 mmHg 39%
    14:00 +25°C° 0 mm 3 mps 734 mmHg 43%
    15:00 +24°C° 0 mm 3 mps 733 mmHg 47%
    16:00 +22°C° 0 mm 3 mps 733 mmHg 51%
    17:00 +20°C° 0 mm 2 mps 733 mmHg 63%
    18:00 +18°C° 0 mm 1 mps 733 mmHg 74%
    19:00 +15°C° 0 mm 1 mps 733 mmHg 86%
    20:00 +14°C° 0 mm 1 mps 734 mmHg 88%
    21:00 +13°C° 0 mm 1 mps 734 mmHg 89%
    22:00 +13°C° 0 mm 1 mps 734 mmHg 91%
    23:00 +12°C° 0 mm 1 mps 734 mmHg 91%

    5 May, Friday

    Time Temperature Precipitation Wind Pressure Humidity
    00:00 +12°C° 0 mm 1 mps 734 mmHg 91%
    01:00 +11°C° 0 mm 1 mps 734 mmHg 90%
    02:00 +11°C° 0 mm 1 mps 733 mmHg 90%
    03:00 +11°C° 0 mm 1 mps 733 mmHg 90%
    04:00 +10°C° 0 mm 1 mps 733 mmHg 89%
    05:00 +13°C° 0 mm 1 mps 733 mmHg 79%
    06:00 +16°C° 0 mm 1 mps 734 mmHg 69%
    07:00 +17°C° 0 mm 0 mps 734 mmHg 58%
    08:00 +21°C° 0 mm 1 mps 734 mmHg 52%
    09:00 +21°C° 0 mm 2 mps 734 mmHg 47%
    10:00 +23°C° 0 mm 2 mps 734 mmHg 41%
    11:00 +24°C° 0 mm 3 mps 733 mmHg 41%
    12:00 +23°C° 0 mm 4 mps 733 mmHg 42%
    13:00 +23°C° 0 mm 4 mps 733 mmHg 42%
    14:00 +22°C° 0 mm 4 mps 733 mmHg 45%
    15:00 +22°C° 0 mm 4 mps 733 mmHg 49%
    16:00 +21°C° 0 mm 4 mps 732 mmHg 52%
    17:00 +18°C° 0 mm 3 mps 733 mmHg 64%
    18:00 +16°C° 0 mm 2 mps 733 mmHg 76%
    19:00 +14°C° 0 mm 2 mps 733 mmHg 88%
    20:00 +13°C° 0 mm 1 mps 733 mmHg 90%
    21:00 +12°C° 0 mm 1 mps 733 mmHg 92%
    22:00 +11°C° 0 mm 1 mps 734 mmHg 94%
    23:00 +11°C° 0 mm 1 mps 734 mmHg 94%
    Show more